Stations météo

réclame
Mon MeteoGroup
Arkona, Allemagne (10091): Température de l'air & dewpoint: 13.07.2019 21:00:00 - 19.07.2019 21:00:00 (CEST)Arkona, Allemagne (10091): Température de l'air 5cm & Température de l'air -5cm: 13.07.2019 21:00:00 - 19.07.2019 21:00:00 (CEST)Arkona, Allemagne (10091): Température de l'air -20cm & Température de l'air -100cm: 13.07.2019 21:00:00 - 19.07.2019 21:00:00 (CEST)Arkona, Allemagne (10091): water temperature: 13.07.2019 21:00:00 - 19.07.2019 21:00:00 (CEST)Arkona, Allemagne (10091): Vitesse du vent & gusts: 13.07.2019 21:00:00 - 19.07.2019 21:00:00 (CEST)Arkona, Allemagne (10091): Direction du vent: 13.07.2019 21:00:00 - 19.07.2019 21:00:00 (CEST)Arkona, Allemagne (10091): reduced air pressure: 13.07.2019 21:00:00 - 19.07.2019 21:00:00 (CEST)Arkona, Allemagne (10091): visibility: 13.07.2019 21:00:00 - 19.07.2019 21:00:00 (CEST)Arkona, Allemagne (10091): Ensoleillement: 13.07.2019 21:00:00 - 19.07.2019 21:00:00 (CEST)Arkona, Allemagne (10091): Quantités de précipitations: 13.07.2019 21:00:00 - 19.07.2019 21:00:00 (CEST)
Date & Time tt [°C] td [°C] tt 5cm [°C] tt -5cm [°C] tt -20cm [°C] tt -100cm [°C] tw [°C] ff [km/h] ff [knt] fx [km/h] fx [knt] dd ppp [hPa] vv [km] sd [min] rr [mm]
19.07.2019 21:00:00 20,2 14,7 20,4 25,7 25,5 17,9 17,8 14 8 22 12 W 1013,7 32 24 0,0
19.07.2019 20:00:00 21,0 15,2 22,3 26,5 25,8 17,9 17,9 8 4 25 14 WSW 1013,3 22 11 0,0
19.07.2019 19:00:00 20,7 15,0 21,8 28,4 25,8 17,8 17,8 8 4 17 9 WNW 1013,1 25 5 0,0
19.07.2019 18:00:00 20,5 15,0 25,9 30,9 25,7 17,8 17,9 3 2 20 11 SE 1013,1 26 43 0,0
19.07.2019 17:00:00 20,9 15,1 24,6 29,9 25,6 17,8 17,9 10 5 17 9 NW 1013,2 31 11 0,0
19.07.2019 16:00:00 20,1 14,7 22,4 30,7 25,4 17,8 17,9 13 7 27 15 SE 1012,9 66 1 0,0
19.07.2019 15:00:00 20,4 15,9 23,9 32,9 24,8 17,8 17,9 9 5 22 12 E 1012,6 50 24 0,0
19.07.2019 14:00:00 21,0 16,4 26,8 33,1 24,1 17,8 17,9 8 5 28 15 E 1012,6 62 39 0,0
19.07.2019 13:00:00 21,8 16,3 26,6 33,1 23,3 17,8 17,8 11 6 28 15 E 1012,4 52 58 0,0
19.07.2019 12:00:00 21,5 16,5 25,8 31,3 22,5 17,8 17,8 9 5 26 14 E 1012,4 71 60 0,0
19.07.2019 11:00:00 21,4 16,3 24,6 28,2 22,0 17,8 17,7 10 6 25 14 E 1012,3 48 60 0,0
19.07.2019 10:00:00 20,7 16,9 22,8 24,9 21,7 17,8 17,6 14 8 24 13 E 1012,3 52 20 0,0
19.07.2019 09:00:00 19,3 16,3 20,3 22,9 21,6 17,7 17,5 13 7 21 11 E 1012,1 57 8 0,0
19.07.2019 08:00:00 19,6 16,7 21,1 21,4 21,7 17,7 17,5 14 8 19 11 ESE 1012,0 46 38 0,0
19.07.2019 07:00:00 18,0 15,8 18,1 19,8 21,9 17,7 17,5 12 7 23 12 SE 1011,9 62 1 0,0
19.07.2019 06:00:00 18,1 15,3 17,6 19,7 22,2 17,7 17,5 18 10 26 14 SE 1012,0 45 0 0,0
19.07.2019 05:00:00 18,0 14,0 17,3 19,8 22,5 17,7 17,5 15 8 18 10 SE 1012,1 65 0 0,0
19.07.2019 04:00:00 17,9 13,6 17,4 20,2 22,8 17,7 17,5 15 8 22 12 SSE 1012,3 57 0 0,0
19.07.2019 03:00:00 18,0 13,2 17,7 20,3 23,2 17,7 17,4 18 10 26 14 SSE 1012,5 62 0 0,0
19.07.2019 02:00:00 18,1 12,7 17,5 20,6 23,6 17,7 17,5 16 9 27 15 SE 1012,7 71 0 0,0
19.07.2019 01:00:00 18,0 14,0 17,5 20,9 24,1 17,7 17,7 21 12 30 16 SE 1012,9 66 0 0,0
19.07.2019 00:00:00 17,7 14,8 17,0 21,5 24,6 17,7 18,0 26 14 30 16 ESE 1012,7 71 0 0,0
18.07.2019 23:00:00 17,6 15,3 16,8 22,4 25,2 17,7 18,1 24 13 27 15 ESE 1012,6 53 0 0,0
18.07.2019 22:00:00 17,2 15,5 16,4 23,7 25,8 17,7 18,2 16 9 23 12 ESE 1012,9 55 0 0,0
18.07.2019 21:00:00 17,6 15,5 16,9 25,7 26,2 17,7 18,5 11 6 21 11 E 1012,7 56 27 0,0
18.07.2019 20:00:00 18,3 15,1 18,7 28,6 26,4 17,7 18,9 11 6 20 11 E 1012,8 65 59 0,0
18.07.2019 19:00:00 19,4 15,3 22,4 31,7 26,3 17,7 18,9 8 4 21 12 E 1012,9 42 60 0,0
18.07.2019 18:00:00 19,6 15,2 23,6 33,5 26,1 17,7 20,1 7 4 25 14 ENE 1013,0 50 60 0,0
18.07.2019 17:00:00 19,5 13,8 24,5 34,8 25,5 17,7 19,7 16 9 26 14 E 1013,3 47 60 0,0
18.07.2019 16:00:00 19,4 13,9 25,9 35,9 24,8 17,7 19,5 14 8 21 11 E 1013,6 53 60 0,0
18.07.2019 15:00:00 19,5 12,8 25,9 35,5 23,9 17,7 19,1 15 8 18 10 ENE 1013,7 67 60 0,0
18.07.2019 14:00:00 19,6 12,8 26,5 34,1 23,0 17,6 18,3 8 4 15 8 N 1013,9 56 60 0,0
18.07.2019 13:00:00 19,6 12,4 25,3 32,1 22,1 17,6 17,9 9 5 19 10 NNW 1013,9 40 60 0,0
18.07.2019 12:00:00 19,9 12,0 23,8 30,0 21,3 17,6 17,4 12 6 19 11 WNW 1014,0 75 60 0,0
18.07.2019 11:00:00 19,1 11,6 23,3 27,3 20,6 17,6 17,2 13 7 23 12 WNW 1013,9 61 58 0,0
18.07.2019 10:00:00 19,0 13,3 22,6 25,0 20,2 17,6 17,0 10 5 18 10 WNW 1013,7 63 60 0,0
18.07.2019 09:00:00 18,4 13,8 20,4 22,1 19,9 17,6 17,1 11 6 20 11 WSW 1013,7 53 60 0,0
18.07.2019 08:00:00 17,3 14,9 18,3 19,3 20,0 17,6 17,1 12 6 17 9 WSW 1013,5 25 60 0,0
18.07.2019 07:00:00 15,5 14,5 15,1 17,0 20,2 17,6 17,1 11 6 17 9 WSW 1013,6 10 60 0,0
18.07.2019 06:00:00 13,4 12,9 12,2 16,6 20,6 17,6 17,0 15 8 16 9 SW 1013,6 12 21 0,0
18.07.2019 05:00:00 13,9 13,1 12,0 16,8 21,0 17,6 17,1 13 7 15 8 SW 1013,5 39 0 0,0
18.07.2019 04:00:00 14,1 13,4 12,2 17,4 21,4 17,6 17,2 9 5 12 6 SW 1013,5 31 0 0,0
18.07.2019 03:00:00 14,5 13,4 12,7 18,0 21,8 17,6 17,1 5 3 12 7 SW 1013,7 40 0 0,0
18.07.2019 02:00:00 16,2 14,1 14,4 18,6 22,2 17,6 17,3 11 6 16 9 WNW 1013,8 58 0 0,0
18.07.2019 01:00:00 16,1 13,6 14,4 19,2 22,7 17,6 17,4 14 8 21 11 WNW 1013,9 60 0 0,0
18.07.2019 00:00:00 15,9 13,6 14,7 19,8 23,3 17,6 17,6 16 9 22 12 W 1014,0 69 0 0,0
17.07.2019 23:00:00 15,2 12,4 14,1 20,8 23,8 17,6 17,7 18 10 21 11 W 1014,0 50 0 0,0
17.07.2019 22:00:00 15,5 12,6 14,5 22,3 24,3 17,6 17,7 18 10 19 11 WSW 1014,0 61 8 0,0
17.07.2019 21:00:00 17,3 12,5 17,0 24,4 24,7 17,6 17,7 13 7 24 13 WSW 1013,9 62 6 0,0
17.07.2019 20:00:00 18,1 11,8 18,7 26,6 24,8 17,6 17,8 16 8 24 13 WSW 1014,0 61 32 0,0
17.07.2019 19:00:00 19,4 13,2 22,4 29,2 24,8 17,6 17,9 13 7 26 14 W 1013,8 43 60 0,0
17.07.2019 18:00:00 19,0 13,2 22,3 30,2 24,6 17,6 18,1 16 9 27 15 W 1014,2 52 60 0,0
17.07.2019 17:00:00 18,7 14,0 22,0 31,4 24,3 17,7 18,0 17 9 26 14 WNW 1014,3 56 60 0,0
17.07.2019 16:00:00 18,7 10,9 23,6 33,4 23,6 17,7 17,6 6 4 13 7 NW 1014,3 75 60 0,0
17.07.2019 15:00:00 18,7 11,6 23,7 32,3 23,0 17,7 18,3 8 5 18 10 NW 1014,3 55 60 0,0
17.07.2019 14:00:00 18,3 12,0 23,4 31,6 22,2 17,7 18,1 12 7 20 11 NW 1014,6 69 60 0,0
17.07.2019 13:00:00 18,3 12,2 24,4 31,7 21,3 17,7 17,6 10 5 19 11 NNW 1014,5 59 60 0,0
17.07.2019 12:00:00 17,8 11,5 22,7 29,5 20,4 17,7 17,2 9 5 18 10 NNW 1014,3 66 60 0,0
17.07.2019 11:00:00 18,9 12,3 22,5 27,2 19,7 17,7 17,0 7 4 18 10 N 1014,2 62 60 0,0
17.07.2019 10:00:00 18,9 12,6 21,7 24,6 19,2 17,7 16,9 7 4 17 9 N 1014,0 53 60 0,0
17.07.2019 09:00:00 17,9 12,8 19,9 21,8 18,9 17,7 16,8 9 5 19 11 NW 1013,8 72 54 0,0
17.07.2019 08:00:00 17,3 14,1 18,6 18,9 18,8 17,7 16,8 10 5 18 10 NW 1013,5 49 48 0,0
17.07.2019 07:00:00 16,4 14,1 15,9 16,9 19,0 17,7 16,8 9 5 20 11 NNW 1013,4 54 48 0,0
17.07.2019 06:00:00 15,6 14,1 14,8 16,2 19,2 17,7 16,9 13 7 22 12 NW 1013,4 51 41 0,0
17.07.2019 05:00:00 15,4 14,0 14,2 16,2 19,5 17,7 16,8 16 8 26 14 NW 1013,1 51 0 0,0
17.07.2019 04:00:00 15,4 14,0 14,1 16,4 19,8 17,7 16,9 16 9 32 18 NW 1013,1 43 0 0,0
17.07.2019 03:00:00 15,6 13,8 14,4 16,7 20,1 17,7 16,9 19 10 29 16 WNW 1013,2 49 0 0,0
17.07.2019 02:00:00 15,7 13,0 14,7 17,1 20,4 17,7 16,9 19 10 34 18 NW 1013,1 55 0 0,0
17.07.2019 01:00:00 15,9 12,5 14,7 17,5 20,8 17,7 16,9 21 11 31 17 NW 1013,0 56 0 0,0
17.07.2019 00:00:00 16,2 12,0 15,0 18,0 21,2 17,7 16,9 21 12 37 20 WNW 1012,9 64 0 0,0
16.07.2019 23:00:00 16,5 11,7 15,4 18,7 21,6 17,7 16,9 22 12 43 23 NW 1012,9 69 0 0,0
16.07.2019 22:00:00 16,8 11,8 15,6 19,7 22,1 17,7 17,0 23 12 39 21 NW 1012,6 61 22 0,0
16.07.2019 21:00:00 16,7 13,9 15,9 21,3 22,4 17,8 17,0 24 13 39 21 W 1012,3 35 45 0,0
16.07.2019 20:00:00 17,2 13,6 17,9 23,5 22,5 17,8 17,0 29 16 41 22 W 1012,1 40 60 0,0
16.07.2019 19:00:00 17,8 12,7 19,6 25,4 22,4 17,8 16,9 30 16 44 24 W 1012,0 40 60 0,0
16.07.2019 18:00:00 17,6 12,9 20,1 27,0 22,1 17,8 16,9 31 17 42 23 W 1011,9 38 60 0,0
16.07.2019 17:00:00 17,4 12,6 19,9 27,7 21,6 17,8 16,9 33 18 42 23 W 1012,0 67 60 0,0
16.07.2019 16:00:00 17,1 12,9 20,8 28,4 21,0 17,8 16,8 34 18 40 22 W 1012,0 53 60 0,0
16.07.2019 15:00:00 17,2 12,6 21,7 27,7 20,4 17,8 16,7 28 15 37 20 W 1012,0 55 60 0,0
16.07.2019 14:00:00 16,5 12,2 21,6 24,6 20,0 17,8 16,7 27 15 37 20 W 1011,8 51 20 0,0
16.07.2019 13:00:00 15,0 12,3 16,6 21,5 19,8 17,8 16,7 27 14 36 19 W 1012,2 58 0 0,0
16.07.2019 12:00:00 15,4 12,8 17,9 22,6 19,5 17,8 16,7 27 15 40 22 W 1012,0 31 4 0,0
16.07.2019 11:00:00 16,1 12,8 19,3 22,8 19,1 17,8 16,7 34 18 43 23 W 1011,6 22 33 0,0
16.07.2019 10:00:00 15,7 13,6 17,4 21,2 18,8 17,8 16,7 29 16 38 21 W 1011,6 20 30 0,0
16.07.2019 09:00:00 16,1 12,4 17,1 19,1 18,7 17,8 16,7 20 11 31 17 WNW 1011,5 36 6 0,0
16.07.2019 08:00:00 15,6 12,4 16,4 17,5 18,7 17,8 16,7 19 10 31 17 WNW 1011,4 35 0 0,0
16.07.2019 07:00:00 15,2 12,0 15,4 16,9 18,9 17,8 16,7 19 10 36 19 WNW 1011,5 34 48 0,0
16.07.2019 06:00:00 15,1 10,5 14,3 16,6 19,0 17,8 16,7 23 12 35 19 NW 1011,5 37 6 0,0
16.07.2019 05:00:00 15,0 12,5 14,7 16,8 19,2 17,8 16,7 23 13 39 21 NW 1011,2 33 0 0,0
16.07.2019 04:00:00 15,5 13,0 15,4 17,3 19,3 17,8 16,8 22 12 46 25 WNW 1011,0 29 0 0,0
16.07.2019 03:00:00 15,7 14,2 15,6 17,4 19,5 17,8 16,8 29 16 44 24 W 1010,9 18 0 0,0
16.07.2019 02:00:00 15,3 13,1 15,2 17,5 19,6 17,8 16,8 29 16 40 21 W 1011,1 22 0 0,0
16.07.2019 01:00:00 15,3 12,6 15,2 17,6 19,8 17,8 16,9 29 16 42 23 W 1011,5 25 0 0,0
16.07.2019 00:00:00 15,6 12,2 15,5 17,9 20,0 17,8 16,9 31 17 40 22 W 1011,7 27 0 0,0
15.07.2019 23:00:00 15,4 11,7 15,3 18,1 20,2 17,8 17,0 24 13 41 22 W 1012,0 28 0 0,0
15.07.2019 22:00:00 15,4 11,6 15,3 18,4 20,4 17,8 17,0 31 17 43 23 WSW 1012,4 28 0 0,0
15.07.2019 21:00:00 15,1 10,6 15,2 19,0 20,6 17,8 17,0 28 15 45 25 WSW 1012,6 31 0 0,0
15.07.2019 20:00:00 15,4 10,3 15,7 19,9 20,7 17,8 17,1 31 17 52 28 W 1012,9 39 0 0,0
15.07.2019 19:00:00 15,5 10,5 16,0 20,6 20,7 17,8 17,2 32 18 50 27 W 1013,1 32 5 0,0
15.07.2019 18:00:00 15,7 9,5 16,9 21,4 20,7 17,8 17,3 37 20 52 28 WSW 1013,4 42 1 0,0
15.07.2019 17:00:00 16,6 9,8 18,8 21,4 20,6 17,8 17,4 35 19 49 26 WSW 1013,7 37 1 0,0
15.07.2019 16:00:00 15,2 9,9 16,1 21,1 20,6 17,8 17,3 30 16 51 28 WSW 1014,2 43 0 0,0
15.07.2019 15:00:00 15,5 9,9 17,2 21,8 20,4 17,8 17,4 35 19 49 26 WSW 1014,4 50 1 0,0
15.07.2019 14:00:00 15,9 9,6 18,2 21,7 20,2 17,8 17,6 32 18 47 25 WSW 1014,5 32 1 0,0
15.07.2019 13:00:00 15,3 9,8 16,8 20,7 20,1 17,8 17,7 31 17 44 24 WSW 1014,8 48 0 0,0
15.07.2019 12:00:00 15,0 10,3 16,3 19,6 20,1 17,8 17,7 28 15 41 22 WSW 1014,9 33 0 0,0
15.07.2019 11:00:00 14,6 10,5 15,3 18,5 20,2 17,8 17,7 23 13 35 19 WSW 1014,9 36 0 0,0
15.07.2019 10:00:00 14,2 11,9 14,2 17,9 20,4 17,8 18,0 20 11 31 17 W 1014,9 29 0 0,0
15.07.2019 09:00:00 14,2 13,2 14,2 18,1 20,6 17,7 18,2 17 9 25 13 WSW 1014,8 22 0 0,1
15.07.2019 08:00:00 14,2 13,6 14,3 18,2 20,8 17,7 18,2 17 9 29 16 WSW 1014,9 14 0 0,2
15.07.2019 07:00:00 14,6 13,5 14,4 18,5 21,0 17,7 18,3 16 9 27 14 WSW 1015,0 17 0 0,0
15.07.2019 06:00:00 14,8 12,8 15,1 18,7 21,2 17,7 18,3 19 10 26 14 WSW 1015,2 36 0 0,0
15.07.2019 05:00:00 15,0 13,1 15,1 18,9 21,5 17,7 18,3 18 10 28 15 WSW 1015,4 31 0 0,0
15.07.2019 04:00:00 15,2 12,9 15,3 19,2 21,7 17,7 18,2 14 7 22 12 WSW 1015,6 37 0 0,0
15.07.2019 03:00:00 15,2 12,9 15,3 19,5 22,0 17,7 18,1 13 7 19 10 W 1016,0 44 0 0,0
15.07.2019 02:00:00 15,1 12,6 15,2 19,7 22,3 17,7 18,2 12 7 16 9 W 1016,2 52 0 0,0
15.07.2019 01:00:00 15,0 12,4 15,0 20,0 22,6 17,7 18,2 13 7 16 9 W 1016,3 43 0 0,0
15.07.2019 00:00:00 14,9 12,3 15,0 20,2 23,0 17,7 18,2 11 6 19 11 W 1016,6 44 0 0,0
14.07.2019 23:00:00 15,1 12,3 14,9 20,6 23,4 17,7 17,9 16 8 27 15 W 1016,4 42 0 0,0
14.07.2019 22:00:00 15,4 12,2 15,3 21,4 23,8 17,6 18,2 18 10 31 17 W 1016,5 41 0 0,0
14.07.2019 21:00:00 15,7 12,2 15,9 22,5 24,2 17,6 18,5 21 12 33 18 W 1016,4 48 0 0,0
14.07.2019 20:00:00 16,0 12,1 16,4 24,6 24,3 17,6 18,5 25 14 37 20 W 1016,4 48 57 0,0
14.07.2019 19:00:00 17,2 12,9 19,7 27,0 24,3 17,6 18,6 21 11 33 18 W 1016,3 60 60 0,0
14.07.2019 18:00:00 17,0 12,2 20,1 28,5 24,1 17,6 18,7 21 12 33 18 W 1016,3 41 60 0,0
14.07.2019 17:00:00 17,1 13,0 20,5 28,1 23,8 17,6 18,7 22 12 32 17 W 1016,8 39 32 0,0
14.07.2019 16:00:00 17,0 13,2 20,4 27,9 23,6 17,6 18,8 19 11 30 16 W 1016,7 33 2 0,0
14.07.2019 15:00:00 16,9 13,5 20,4 28,4 23,1 17,6 19,1 18 10 29 15 W 1016,8 30 30 0,0
14.07.2019 14:00:00 17,0 13,6 22,2 28,2 22,7 17,5 20,1 20 11 29 16 WNW 1016,6 27 22 0,0
14.07.2019 13:00:00 16,4 13,7 19,5 25,0 22,6 17,5 19,2 18 10 26 14 WNW 1016,8 23 0 0,0
14.07.2019 12:00:00 16,7 14,0 19,0 25,0 22,4 17,5 18,4 14 7 25 13 WNW 1016,6 20 0 0,0
14.07.2019 11:00:00 16,3 14,3 18,0 24,5 22,2 17,5 18,0 14 8 25 13 WNW 1016,4 16 1 0,0
14.07.2019 10:00:00 17,3 14,6 20,7 25,2 21,9 17,5 17,9 19 10 29 16 NW 1015,9 19 26 0,0
14.07.2019 09:00:00 17,0 15,1 19,1 22,8 21,9 17,5 17,8 18 10 28 15 NW 1015,5 21 9 0,0
14.07.2019 08:00:00 16,7 15,5 17,8 21,5 21,9 17,5 17,7 17 9 28 15 NW 1015,1 19 6 0,0
14.07.2019 07:00:00 16,3 15,4 17,0 20,3 22,1 17,4 17,7 18 10 29 16 WNW 1014,8 16 0 0,0
14.07.2019 06:00:00 16,4 15,4 16,7 19,9 22,4 17,4 17,8 16 9 28 15 WNW 1014,5 16 0 0,0
14.07.2019 05:00:00 16,2 15,1 15,8 19,8 22,7 17,4 17,9 19 10 35 19 NW 1014,4 18 0 0,0
14.07.2019 04:00:00 16,8 15,5 16,4 20,2 23,0 17,4 - 21 12 33 18 NW 1014,1 24 0 0,0
14.07.2019 03:00:00 17,5 16,3 17,1 20,5 23,4 17,4 18,0 14 8 24 13 WNW 1014,2 29 0 0,0
14.07.2019 02:00:00 17,6 16,1 16,8 20,6 23,9 17,4 18,0 14 8 23 12 WNW 1013,9 42 0 0,0
14.07.2019 01:00:00 17,4 15,9 16,3 21,1 24,4 17,4 18,2 13 7 19 11 WNW 1013,8 34 0 0,0
14.07.2019 00:00:00 17,4 15,9 16,5 21,8 25,0 17,4 18,2 16 9 24 13 W 1013,8 27 0 0,0
13.07.2019 23:00:00 16,4 13,7 15,6 22,8 25,5 17,4 17,6 20 11 23 13 W 1013,7 51 0 0,0
13.07.2019 22:00:00 17,0 13,7 16,4 24,3 26,0 17,3 18,1 18 10 21 11 W 1013,9 53 0 0,0
13.07.2019 21:00:00 18,7 14,9 18,6 26,4 26,4 17,3 18,7 14 8 20 11 W 1013,6 53 42 0,0

tt = Température de l'air
td = dewpoint
tt 5cm = Température de l'air 5cm
tt -5cm = Température de l'air -5cm
tt -20cm = Température de l'air -20cm
tt -100cm = Température de l'air -100cm
tw = water temperature
ff = Vitesse du vent
fx = gusts
dd = Direction du vent
ppp = reduced air pressure
vv = visibility
sd = Ensoleillement
rr = Quantités de précipitations

stations d'obs. à proximité